Location: Gungolding
(48.9246°N, 11.3502°E)
Time: 21:30:33
(UTC+02:00)

SR - Visible Passes

Search period start: 05 April 2020 00:00
Search period end: 15 April 2020 00:00
Orbit: 578 x 878 km, 66.7° (Epoch: 05 April)

Date Brightness Start Highest point End Pass type
(mag) Time Alt. Az. Time Alt. Az. Time Alt. Az.
05 Apr ? 04:44:55 10° SE 04:48:25 17° ESE 04:51:50 10° ENE visible
06 Apr ? 05:34:40 10° S 05:40:14 49° ESE 05:45:31 10° NE visible
07 Apr ? 04:45:55 10° SSE 04:50:46 28° ESE 04:55:24 10° NE visible
08 Apr ? 03:58:11 10° SE 04:01:27 16° ESE 04:04:39 10° ENE visible
08 Apr ? 05:37:03 10° SSW 05:42:51 81° ESE 05:48:17 10° NE visible
09 Apr ? 04:48:18 13° S 04:53:15 47° ESE 04:58:27 10° NE visible
10 Apr ? 04:00:19 15° SSE 04:03:47 27° ESE 04:08:19 10° NE visible
10 Apr ? 05:39:52 10° SW 05:45:34 64° NW 05:50:56 10° NNE visible
11 Apr ? 03:12:16 12° SE 03:14:29 15° ESE 03:17:25 10° ENE visible
11 Apr ? 04:51:41 19° SSW 04:55:50 77° ESE 05:01:16 10° NE visible
12 Apr ? 04:03:34 27° S 04:06:15 44° ESE 04:11:24 10° NE visible
12 Apr ? 05:43:03 10° WSW 05:48:25 41° NW 05:53:28 10° NNE visible
13 Apr ? 03:15:22 23° SE 03:16:48 25° ESE 03:21:13 10° ENE visible
13 Apr ? 04:54:47 22° SW 04:58:33 67° NW 05:03:54 10° NNE visible
14 Apr ? 02:27:07 14° ESE 02:27:31 14° ESE 02:30:11 10° ENE visible
14 Apr ? 04:06:31 37° SSW 04:08:50 74° ESE 04:14:12 10° NE visible
14 Apr ? 05:46:35 10° W 05:51:24 28° NW 05:55:56 10° NNE visible
